Regional Weather Roundup
Issued by NWS

Home | Current Version | Previous Version | Graphics & Text | Print | Product List | Glossary On
Versions: 1 2 3 4 5 6 7 8 9 10 11 12 13 14 15 16 17 18 19 20 21 22 23 24 25 26 27 28 29 30 31 32 33 34 35 36 37 38 39 40 41 42 43 44 45 46 47 48 49 50
000
ASUS43 KFSD 090402
RWRSD

WEATHER ROUNDUP FOR SOUTH DAKOTA
NATIONAL WEATHER SERVICE SIOUX FALLS SD
1000 PM CST MON FEB 08 2016

NOTE: "FAIR" INDICATES FEW OR NO CLOUDS BELOW 12,000 FEET WITH NO
SIGNIFICANT WEATHER AND/OR OBSTRUCTIONS TO VISIBILITY.


SDZ001>005-009-010-012>017-090500-
NORTHWEST AND NORTH CENTRAL SOUTH DAKOTA

CITY           SKY/WX    TMP DP  RH WIND       PRES   REMARKS
BUFFALO          N/A     31  13  47 N6        30.16F WCI  25
FAITH            N/A     31  14  49 N10       30.22S WCI  22
MOBRIDGE       MOCLDY    29  18  63 N13       30.21R WCI  19
$$

SDZ012>016-024>037-041>051-057-063-072>074-090500-
SOUTHWEST AND SOUTH CENTRAL SOUTH DAKOTA

CITY           SKY/WX    TMP DP  RH WIND       PRES   REMARKS
RAPID CTY ARPT CLOUDY    34  17  50 S3        30.23S
PIERRE         CLOUDY    27  18  69 NW10      30.22R WCI  17
CUSTER         CLOUDY    36  21  54 N14G24    30.19F
ELLSWORTH AFB  CLOUDY    36  16  44 CALM      30.22R
PHILIP         CLOUDY    34  19  54 N9        30.24S WCI  27
PINE RIDGE     CLOUDY    34  15  46 NE3       30.24S
WINNER         CLOUDY    30  20  66 NW8       30.20S WCI  22
$$

SDZ004>011-016>023-039-040-090500-
NORTHEAST SOUTH DAKOTA

CITY           SKY/WX    TMP DP  RH WIND       PRES   REMARKS
ABERDEEN       CLEAR     19  12  74 N15       30.22R WCI   5
WATERTOWN      PTCLDY    11   5  77 N18       30.12R WCI  -7
BROOKINGS      FLURRIES  13   8  81 N23G33    30.10R WCI  -6
SISSETON         N/A      9   4  80 N23       30.19R WCI -11
$$

SDZ017-020-022-023-036>040-048>070-090500-
SOUTHEAST SOUTH DAKOTA

CITY           SKY/WX    TMP DP  RH WIND       PRES   REMARKS
SIOUX FALLS    CLEAR     19  10  68 N23G32    30.11R WCI   2
HURON          CLEAR     21  12  68 N21       30.19R WCI   5
MITCHELL       CLEAR     23  14  68 N16       30.19R WCI  10
YANKTON        CLEAR     25  12  58 N20G29    30.15R WCI  11
$$

ABBREVIATIONS USED IN REMARKS
   TC - TEMPERATURE IN CELSIUS
  WCI - WIND CHILL INDEX
   HX - HEAT INDEX
  VSB - VISIBILITY





USA.gov is the U.S. government's official web portal to all federal, state and local government web resources and services.